Location: ????????
(55.3155°N, 39.2900°E)
Time: 10:47:54
(UTC+00:00)

ARIANE 6 FM1 Upper Stage - Pass Details

Date: 23 November 2025
Orbit: 522 x 612 km, 62.0° (Epoch: 07 December)

Event Time Altitude Azimuth Distance (km) Brightness Sun altitude
Rises 16:22:34 0° 304° (NW) 2,660 7.0 -27.1°
Reaches altitude 10° 16:24:46 10° 307° (NW) 1,770 5.9 -27.4°
Enters shadow 16:26:51 29° 316° (NW) 979 4.2 -27.7°
